Temp
-6 -6 -6 -6 -6 -6 -7 -7 -7 -6 -7 -6 -7 -7 -8 -8 -8 -8 -8 -8 -8 -7 -7 -7 -7 -7 -7 -7 -7 -8 -8 -8 -8 -8 -8 -8 -8 -8 -8 -8 -8 -8 -9 -9 -9 -8 -8 -8 -8
-6 -6 -6 -6 -6 -7 -7 -7 -6 -7 -7 -7 -7 -8 -7 -6 -7 -7 -7 -7 -7 -7 -7 -7 -8 -7 -7 -7 -7 -7 -8 -8 -8 -8 -8 -8 -8 -8 -8 -8 -8 -8 -9 -9 -9 -9 -9 -8 -9
-7 -7 -7 -7 -6 -7 -7 -7 -8 -7 -8 -8 -7 -7 -7 -7 -7 -7 -7 -7 -7 -7 -7 -7 -8 -8 -8 -8 -8 -8 -8 -8 -8 -8 -8 -8 -8 -8 -8 -8 -7 -8 -8 -9 -10 -10 -10 -10 -9
-7 -7 -7 -7 -7 -7 -7 -7 -9 -8 -8 -7 -7 -7 -7 -8 -7 -8 -8 -7 -7 -7 -8 -8 -8 -8 -8 -8 -8 -7 -8 -9 -9 -9 -9 -9 -8 -9 -9 -8 -8 -9 -9 -10 -10 -10 -11 -11 -11
-7 -7 -7 -7 -7 -7 -8 -8 -8 -8 -7 -8 -8 -8 -8 -9 -8 -9 -8 -8 -8 -8 -8 -7 -8 -8 -8 -8 -8 -8 -8 -9 -9 -10 -9 -9 -9 -9 -9 -10 -10 -10 -10 -11 -11 -11 -11 -11 -11
-7 -7 -7 -7 -8 -8 -9 -8 -8 -8 -8 -8 -7 -8 -8 -9 -9 -9 -9 -9 -8 -8 -8 -8 -8 -9 -8 -8 -8 -9 -9 -9 -10 -10 -10 -10 -10 -10 -10 -11 -11 -11 -11 -11 -11 -11 -11 -11 -11
-8 -7 -7 -8 -8 -8 -10 -9 -8 -8 -8 -8 -9 -9 -10 -10 -9 -9 -9 -8 -6 -7 -8 -8 -8 -9 -8 -8 -8 -9 -9 -10 -10 -10 -11 -11 -11 -11 -11 -11 -11 -11 -11 -11 -11 -11 -11 -11 -11
-8 -7 -7 -7 -8 -8 -10 -9 -9 -9 -10 -10 -10 -9 -10 -10 -9 -8 -8 -8 -8 -7 -8 -8 -9 -10 -10 -9 -9 -9 -10 -10 -11 -11 -11 -12 -12 -12 -12 -12 -12 -12 -12 -12 -12 -12 -11 -11 -11
-9 -8 -8 -8 -8 -8 -10 -9 -9 -9 -9 -9 -9 -9 -9 -10 -9 -9 -9 -9 -9 -9 -9 -10 -9 -10 -10 -10 -9 -9 -10 -10 -11 -11 -11 -12 -12 -13 -13 -13 -13 -13 -12 -12 -12 -12 -12 -11 -11
-9 -9 -8 -9 -9 -9 -11 -8 -9 -9 -9 -8 -10 -10 -9 -10 -10 -10 -9 -9 -10 -10 -9 -10 -10 -10 -10 -10 -10 -10 -10 -10 -11 -11 -11 -12 -12 -13 -13 -13 -13 -13 -12 -12 -12 -12 -12 -12 -12
-10 -9 -9 -9 -9 -9 -10 -9 -9 -10 -9 -9 -10 -9 -10 -10 -10 -10 -10 -10 -9 -10 -9 -10 -10 -10 -10 -10 -10 -10 -10 -10 -10 -10 -12 -12 -13 -14 -13 -13 -13 -13 -13 -12 -12 -12 -13 -12 -12
-10 -10 -10 -10 -10 -10 -10 -10 -10 -9 -9 -10 -10 -9 -10 -10 -9 -9 -9 -9 -9 -10 -10 -10 -10 -10 -10 -10 -10 -10 -10 -10 -10 -10 -11 -12 -13 -14 -14 -14 -14 -13 -13 -13 -12 -12 -12 -12 -12
-11 -10 -11 -10 -10 -10 -10 -10 -9 -9 -10 -10 -10 -10 -10 -10 -10 -10 -10 -10 -10 -11 -11 -10 -10 -9 -10 -9 -10 -10 -10 -10 -10 -10 -12 -12 -13 -14 -14 -14 -13 -13 -14 -13 -12 -12 -12 -12 -12
-11 -11 -11 -11 -10 -10 -9 -9 -10 -9 -9 -10 -9 -9 -10 -10 -10 -10 -10 -10 -11 -10 -10 -10 -9 -10 -10 -10 -9 -10 -10 -10 -10 -11 -12 -12 -13 -14 -14 -14 -14 -14 -13 -13 -12 -12 -12 -12 -11
-11 -11 -11 -10 -10 -10 -10 -8 -8 -9 -9 -10 -10 -10 -9 -10 -10 -10 -10 -10 -10 -10 -10 -10 -10 -10 -10 -10 -10 -10 -10 -10 -10 -11 -11 -12 -13 -14 -14 -14 -13 -14 -13 -13 -12 -12 -11 -11 -11
-11 -11 -10 -9 -10 -10 -12 -6 -8 -10 -10 -11 -10 -10 -9 -9 -9 -9 -9 -9 -9 -9 -10 -10 -11 -11 -11 -10 -10 -10 -10 -11 -11 -11 -12 -13 -13 -13 -13 -14 -13 -13 -13 -12 -12 -11 -12 -12 -12
-11 -10 -9 -9 -10 -11 -12 -6 -9 -10 -10 -10 -10 -9 -9 -9 -9 -8 -9 -9 -10 -10 -10 -10 -11 -12 -11 -11 -10 -11 -11 -11 -11 -11 -12 -13 -13 -13 -13 -13 -13 -12 -12 -12 -12 -12 -12 -12 -12
-10 -10 -9 -8 -10 -11 -11 -8 -10 -11 -10 -10 -9 -9 -9 -8 -8 -9 -9 -9 -10 -10 -10 -11 -11 -11 -11 -11 -11 -11 -11 -11 -11 -11 -11 -13 -12 -12 -13 -13 -12 -12 -12 -12 -12 -13 -13 -13 -13
-11 -10 -10 -11 -11 -11 -11 -10 -10 -10 -11 -10 -9 -8 -8 -8 -8 -8 -8 -9 -10 -10 -10 -10 -11 -12 -11 -11 -11 -11 -11 -11 -11 -11 -11 -12 -12 -12 -12 -12 -12 -12 -12 -13 -13 -13 -13 -13 -13
-11 -11 -10 -11 -11 -11 -11 -11 -9 -10 -10 -9 -9 -8 -8 -8 -8 -8 -9 -10 -10 -10 -10 -11 -10 -11 -11 -12 -12 -12 -12 -11 -12 -12 -12 -12 -12 -12 -12 -12 -12 -13 -13 -13 -13 -12 -13 -13 -13
-11 -11 -11 -11 -11 -10 -11 -11 -10 -9 -9 -9 -8 -8 -8 -8 -8 -9 -9 -10 -10 -11 -10 -10 -11 -11 -12 -12 -12 -12 -12 -12 -12 -13 -12 -12 -12 -12 -12 -12 -13 -13 -13 -13 -13 -13 -13 -13 -13
-11 -11 -11 -11 -11 -10 -12 -10 -10 -8 -8 -8 -8 -8 -8 -8 -9 -9 -9 -9 -10 -10 -10 -11 -11 -11 -12 -12 -12 -12 -12 -12 -12 -12 -12 -12 -12 -12 -12 -12 -13 -13 -13 -13 -14 -14 -13 -13 -14
-10 -11 -11 -12 -11 -11 -11 -12 -7 -8 -7 -8 -8 -8 -9 -9 -9 -9 -9 -9 -10 -10 -11 -12 -11 -12 -12 -12 -11 -11 -12 -12 -12 -12 -12 -12 -12 -12 -12 -12 -12 -13 -13 -14 -14 -14 -14 -14 -14
-11 -11 -12 -12 -11 -11 -10 -11 -7 -8 -7 -8 -8 -9 -10 -9 -8 -8 -8 -9 -10 -11 -11 -11 -11 -12 -12 -12 -11 -12 -12 -11 -12 -11 -11 -11 -12 -12 -12 -12 -12 -13 -13 -14 -14 -14 -14 -14 -14
-11 -11 -11 -11 -11 -9 -10 -10 -7 -7 -8 -9 -9 -9 -9 -9 -8 -8 -10 -10 -10 -12 -12 -11 -12 -12 -11 -11 -11 -12 -11 -11 -11 -11 -12 -12 -12 -12 -12 -12 -12 -12 -13 -13 -13 -13 -14 -14 -14
-13 -12 -11 -11 -10 -10 -10 -8 -7 -7 -8 -9 -9 -10 -9 -8 -8 -8 -9 -9 -11 -12 -12 -12 -12 -11 -12 -12 -11 -11 -11 -11 -11 -11 -11 -11 -12 -12 -11 -12 -12 -12 -13 -13 -13 -13 -13 -13 -14
-14 -12 -12 -11 -12 -10 -9 -8 -8 -8 -8 -9 -11 -9 -9 -8 -8 -9 -9 -10 -11 -11 -11 -11 -11 -11 -12 -11 -12 -12 -11 -11 -11 -12 -11 -11 -12 -11 -12 -12 -12 -12 -13 -13 -13 -13 -13 -13 -13
-15 -14 -14 -13 -13 -11 -9 -8 -8 -8 -9 -10 -11 -10 -9 -8 -8 -9 -10 -10 -10 -11 -11 -11 -11 -12 -11 -11 -11 -11 -11 -11 -11 -11 -11 -11 -12 -12 -12 -12 -12 -12 -13 -13 -13 -13 -13 -13 -13
-16 -15 -15 -15 -12 -11 -9 -8 -8 -9 -9 -10 -10 -10 -9 -8 -9 -10 -10 -10 -10 -11 -11 -11 -11 -11 -11 -11 -11 -11 -11 -11 -11 -11 -11 -11 -12 -12 -12 -12 -12 -12 -12 -13 -12 -13 -13 -13 -13
-18 -16 -16 -15 -12 -10 -9 -8 -8 -9 -11 -10 -10 -11 -9 -9 -10 -10 -10 -10 -10 -11 -11 -11 -11 -11 -11 -11 -11 -11 -11 -11 -11 -11 -11 -11 -12 -12 -12 -12 -12 -12 -12 -13 -13 -13 -13 -13 -12
Height
5890 5893 5893 5897 5903 5902 5901 5902 5900 5902 5902 5901 5897 5897 5899 5902 5903 5907 5901 5898 5898 5896 5893 5890 5888 5887 5885 5883 5879 5875 5872 5869 5867 5864 5862 5860 5858 5855 5852 5850 5847 5845 5843 5839 5835 5835 5835 5834 5832
5888 5891 5892 5894 5898 5899 5898 5897 5899 5900 5898 5897 5898 5894 5894 5898 5902 5902 5897 5895 5894 5892 5888 5885 5884 5883 5882 5880 5876 5872 5869 5865 5862 5859 5856 5854 5853 5851 5849 5846 5843 5840 5837 5834 5830 5829 5828 5828 5826
5885 5888 5890 5891 5894 5896 5895 5894 5897 5897 5895 5892 5894 5890 5884 5895 5899 5897 5894 5894 5894 5890 5887 5883 5882 5879 5878 5876 5873 5869 5865 5861 5858 5854 5851 5848 5846 5844 5842 5840 5837 5835 5831 5828 5825 5822 5822 5822 5821
5882 5885 5887 5888 5891 5892 5891 5891 5891 5892 5891 5890 5883 5885 5884 5887 5891 5889 5886 5888 5888 5886 5882 5878 5877 5875 5874 5870 5868 5864 5860 5857 5853 5849 5846 5843 5841 5838 5835 5832 5830 5827 5825 5823 5820 5818 5817 5816 5814
5876 5879 5882 5886 5888 5888 5884 5884 5885 5886 5886 5886 5883 5882 5881 5880 5880 5879 5879 5882 5881 5881 5880 5878 5876 5875 5872 5866 5862 5858 5854 5851 5847 5844 5841 5839 5836 5833 5829 5825 5823 5821 5820 5817 5814 5813 5812 5811 5809
5870 5872 5876 5881 5884 5883 5880 5877 5882 5881 5880 5879 5879 5877 5880 5877 5877 5876 5873 5876 5876 5877 5876 5876 5874 5870 5867 5859 5854 5851 5848 5846 5843 5840 5838 5835 5832 5829 5825 5821 5817 5816 5814 5812 5809 5808 5807 5805 5804
5863 5866 5870 5874 5878 5878 5877 5874 5879 5874 5873 5877 5873 5872 5873 5873 5873 5871 5870 5869 5871 5870 5872 5872 5866 5863 5865 5858 5851 5847 5844 5841 5839 5836 5833 5831 5828 5825 5821 5818 5815 5811 5808 5805 5803 5801 5800 5799 5797
5856 5857 5861 5866 5871 5875 5865 5867 5869 5872 5870 5872 5872 5870 5870 5870 5870 5867 5864 5863 5862 5865 5864 5861 5860 5854 5852 5854 5849 5845 5841 5837 5835 5831 5829 5826 5824 5821 5818 5815 5811 5807 5803 5801 5797 5795 5794 5793 5791
5845 5845 5853 5859 5864 5868 5855 5864 5867 5866 5866 5866 5870 5868 5867 5865 5863 5863 5861 5855 5853 5854 5852 5850 5850 5848 5848 5848 5844 5840 5836 5833 5830 5826 5824 5822 5820 5816 5813 5810 5807 5803 5799 5796 5793 5790 5788 5787 5785
5836 5839 5847 5854 5856 5858 5854 5858 5861 5861 5862 5862 5861 5862 5866 5865 5860 5856 5855 5854 5849 5848 5847 5845 5842 5841 5841 5839 5837 5836 5832 5828 5824 5821 5819 5817 5815 5811 5808 5805 5802 5798 5795 5791 5789 5786 5783 5780 5778
5829 5829 5842 5845 5847 5848 5847 5846 5854 5853 5856 5858 5856 5860 5857 5859 5858 5853 5852 5850 5849 5848 5845 5843 5841 5839 5838 5836 5833 5830 5826 5822 5817 5815 5813 5812 5810 5806 5803 5800 5797 5793 5789 5786 5784 5781 5778 5774 5772
5818 5821 5827 5837 5838 5839 5841 5845 5843 5843 5847 5850 5853 5853 5853 5853 5855 5853 5850 5847 5845 5843 5840 5838 5838 5836 5833 5828 5825 5823 5820 5815 5812 5810 5808 5806 5804 5800 5797 5795 5791 5788 5784 5781 5779 5776 5773 5769 5766
5808 5814 5815 5821 5828 5830 5832 5830 5836 5838 5841 5845 5844 5845 5845 5845 5844 5845 5843 5841 5839 5834 5834 5830 5833 5830 5827 5824 5819 5817 5814 5810 5807 5805 5803 5800 5798 5795 5792 5789 5786 5782 5779 5775 5772 5769 5766 5763 5761
5801 5801 5807 5808 5813 5819 5819 5823 5825 5831 5839 5836 5836 5837 5837 5836 5836 5835 5835 5835 5830 5826 5825 5823 5827 5822 5820 5817 5813 5811 5808 5805 5803 5800 5797 5795 5791 5789 5786 5782 5778 5776 5772 5768 5764 5762 5759 5757 5755
5786 5788 5793 5799 5804 5807 5812 5809 5816 5827 5826 5827 5829 5829 5829 5828 5828 5829 5829 5823 5821 5819 5816 5815 5816 5814 5812 5809 5806 5805 5802 5799 5797 5794 5791 5788 5786 5783 5779 5775 5771 5767 5765 5761 5757 5755 5752 5750 5748
5772 5776 5780 5791 5797 5801 5801 5797 5816 5816 5816 5816 5816 5817 5820 5820 5819 5820 5818 5815 5812 5811 5808 5808 5807 5805 5805 5802 5800 5798 5796 5793 5791 5788 5785 5784 5781 5778 5774 5769 5765 5760 5757 5753 5748 5744 5741 5741 5740
5759 5763 5769 5781 5788 5789 5791 5785 5801 5805 5805 5803 5803 5807 5810 5810 5813 5809 5807 5806 5804 5802 5802 5802 5799 5798 5797 5794 5794 5791 5789 5786 5785 5782 5780 5778 5775 5772 5767 5762 5756 5752 5748 5743 5740 5737 5733 5732 5730
5752 5759 5765 5768 5775 5779 5779 5773 5786 5792 5792 5791 5795 5800 5801 5803 5803 5801 5801 5798 5797 5796 5797 5794 5791 5791 5789 5786 5786 5784 5781 5779 5778 5776 5773 5770 5766 5762 5757 5751 5747 5744 5740 5735 5732 5728 5725 5724 5723
5743 5742 5748 5751 5756 5764 5765 5766 5774 5781 5779 5782 5789 5792 5793 5794 5793 5792 5792 5790 5788 5789 5788 5785 5783 5784 5781 5779 5777 5775 5773 5772 5770 5767 5763 5760 5756 5752 5747 5743 5740 5736 5732 5726 5723 5720 5718 5717 5715
5726 5731 5738 5744 5750 5756 5759 5756 5761 5767 5769 5777 5782 5784 5787 5783 5784 5785 5783 5782 5782 5782 5780 5776 5776 5776 5774 5773 5770 5768 5767 5765 5762 5759 5756 5754 5751 5746 5741 5736 5732 5729 5725 5719 5715 5713 5711 5710 5709
5716 5721 5729 5734 5740 5746 5744 5738 5750 5762 5764 5770 5772 5776 5778 5775 5777 5778 5774 5773 5774 5773 5770 5770 5769 5768 5767 5767 5766 5764 5763 5761 5758 5754 5750 5747 5743 5739 5734 5729 5725 5719 5715 5712 5708 5706 5704 5704 5703
5701 5712 5719 5722 5727 5730 5739 5725 5741 5756 5759 5761 5765 5770 5766 5768 5770 5770 5768 5767 5766 5766 5764 5763 5762 5761 5761 5761 5761 5760 5758 5756 5752 5748 5745 5741 5737 5734 5730 5724 5716 5712 5708 5704 5702 5701 5700 5699 5698
5698 5698 5702 5708 5715 5720 5722 5720 5742 5749 5751 5756 5761 5757 5759 5763 5763 5763 5762 5760 5759 5758 5758 5756 5756 5756 5757 5756 5755 5754 5752 5749 5746 5743 5740 5736 5732 5729 5723 5718 5712 5706 5702 5699 5697 5696 5695 5695 5695
5680 5684 5690 5697 5703 5700 5718 5721 5736 5741 5745 5751 5751 5750 5753 5756 5756 5755 5753 5753 5752 5752 5750 5749 5750 5751 5752 5751 5750 5748 5746 5744 5741 5738 5735 5730 5726 5722 5718 5712 5708 5705 5699 5696 5694 5694 5694 5693 5692
5663 5672 5678 5686 5685 5701 5714 5711 5730 5733 5740 5740 5740 5744 5748 5750 5749 5748 5748 5747 5747 5746 5745 5744 5745 5748 5748 5747 5745 5742 5740 5738 5735 5733 5729 5724 5721 5717 5713 5710 5708 5704 5699 5696 5695 5694 5693 5693 5692
5649 5661 5668 5674 5679 5695 5701 5702 5719 5725 5734 5733 5735 5738 5742 5744 5743 5743 5741 5741 5741 5740 5741 5741 5743 5744 5744 5742 5740 5737 5735 5733 5731 5728 5724 5720 5716 5713 5710 5708 5706 5704 5701 5698 5696 5695 5693 5693 5692
5638 5646 5657 5664 5671 5680 5692 5700 5710 5718 5727 5727 5728 5733 5736 5737 5737 5736 5735 5735 5735 5736 5737 5738 5739 5740 5739 5737 5735 5733 5731 5729 5727 5723 5720 5717 5713 5710 5708 5707 5705 5703 5702 5699 5697 5696 5694 5693 5693
5627 5638 5645 5650 5660 5669 5683 5692 5700 5713 5720 5720 5721 5727 5731 5732 5731 5729 5729 5730 5731 5732 5734 5735 5736 5736 5735 5733 5730 5729 5728 5725 5722 5719 5716 5713 5711 5708 5707 5706 5705 5703 5702 5700 5699 5697 5695 5694 5693
5615 5627 5630 5639 5649 5661 5675 5681 5696 5710 5712 5714 5717 5721 5727 5726 5725 5725 5727 5727 5728 5728 5730 5731 5732 5731 5730 5728 5726 5725 5724 5721 5719 5717 5714 5711 5709 5706 5706 5705 5704 5703 5702 5701 5700 5698 5696 5694 5693
5602 5613 5618 5626 5641 5653 5665 5674 5689 5701 5701 5705 5710 5715 5720 5721 5722 5723 5724 5724 5725 5726 5727 5728 5728 5728 5726 5724 5723 5722 5719 5718 5716 5714 5712 5710 5707 5706 5705 5704 5703 5703 5702 5701 5699 5697 5695 5694 5692
Wind_Speed
21 22 21 22 21 18 16 13 12 16 25 25 26 31 29 28 26 18 21 21 26 28 32 31 31 33 33 28 28 28 27 27 25 23 21 18 17 18 20 23 23 24 25 26 25 26 27 28 26
25 25 25 23 22 19 19 21 22 27 28 29 31 34 35 30 24 25 26 27 25 28 31 32 33 33 34 31 29 31 29 27 25 25 23 21 17 17 19 21 21 24 25 26 25 26 28 28 29
26 27 26 26 22 20 20 24 25 25 29 31 22 34 27 29 21 28 28 20 27 28 30 30 32 35 35 33 31 30 30 28 28 28 24 22 19 20 22 24 25 27 27 25 24 26 26 26 27
27 29 29 28 23 20 22 25 25 28 17 23 23 11 21 17 26 25 30 28 29 32 34 33 34 36 38 36 35 33 33 30 30 27 23 22 21 23 26 27 28 27 24 22 20 21 23 24 24
30 32 32 30 24 22 26 29 28 29 22 15 14 13 20 22 27 32 33 32 34 33 31 33 32 37 37 37 36 36 37 35 33 25 21 22 23 24 28 30 27 23 23 22 20 20 21 20 22
36 37 35 31 26 23 26 33 25 24 20 18 22 19 21 24 30 30 34 34 36 30 32 34 38 37 36 40 43 43 43 41 36 27 23 24 26 27 29 27 26 26 27 25 21 20 21 21 21
36 38 36 34 32 27 25 29 28 19 13 15 19 22 22 29 31 32 37 38 37 33 34 37 43 42 31 35 42 43 44 42 38 30 25 25 27 28 29 25 27 31 32 28 26 24 22 21 22
42 49 46 42 34 27 30 37 35 22 18 17 20 28 28 31 31 39 41 42 39 38 40 43 48 51 42 36 39 41 43 43 40 33 29 26 27 28 27 25 30 32 34 30 26 26 25 24 23
47 53 47 45 39 34 40 34 37 38 30 24 25 27 26 28 34 37 38 39 43 44 46 48 53 55 41 38 38 40 43 41 39 34 28 26 26 29 25 27 35 32 33 29 27 28 28 27 26
53 55 49 44 46 43 33 48 29 38 36 36 32 32 24 29 36 38 40 38 41 43 48 54 56 53 40 39 38 40 40 37 37 33 26 26 26 28 28 28 35 36 34 31 31 28 29 31 28
54 58 49 49 47 47 47 47 43 38 41 38 38 38 36 38 31 38 37 42 43 45 55 56 55 47 39 36 37 41 38 35 35 31 25 25 26 27 29 31 36 36 35 34 34 29 30 30 29
58 57 55 52 51 48 50 50 45 42 39 35 34 32 40 39 37 42 46 47 48 56 56 56 50 37 34 35 39 40 34 34 33 30 25 24 27 26 32 34 39 39 37 38 34 31 29 29 26
66 64 60 62 60 58 53 52 55 44 39 34 32 30 35 40 46 49 49 48 54 60 60 54 41 35 33 34 38 37 35 32 33 28 24 24 25 27 33 35 40 37 41 40 36 34 31 29 27
67 68 62 62 61 58 61 56 48 43 33 40 40 36 38 42 47 50 51 51 60 56 53 51 37 35 34 34 36 36 34 33 31 24 23 25 25 30 34 35 40 41 42 41 39 36 34 30 29
71 71 67 68 69 66 57 59 50 35 41 44 46 45 41 41 42 45 46 55 52 46 42 42 34 36 32 33 35 34 36 33 30 24 24 24 27 31 35 38 43 43 43 43 40 36 31 30 30
73 70 69 62 64 60 52 52 38 41 43 44 47 46 34 29 27 32 42 45 42 37 37 35 33 35 32 35 35 34 34 33 28 23 24 25 26 33 37 43 44 44 43 42 40 39 36 34 31
79 71 65 58 56 56 58 47 44 43 41 41 43 39 33 31 29 29 32 36 31 34 35 32 35 38 31 35 33 33 32 33 26 24 26 27 31 32 39 40 41 42 42 43 41 39 37 34 33
65 66 58 57 55 56 60 58 55 44 39 40 36 29 30 26 28 30 29 28 30 33 34 33 36 32 34 35 33 31 31 32 27 26 29 31 33 35 39 40 40 41 43 42 38 36 35 33 29
55 58 56 54 53 50 50 48 43 35 38 37 29 27 29 25 27 28 26 25 24 27 32 34 33 28 35 30 31 30 31 30 27 30 30 33 37 37 38 38 40 41 39 39 38 33 30 27 24
57 56 53 50 46 40 39 43 42 37 38 33 25 29 26 27 28 26 20 19 22 27 32 35 32 29 30 26 27 30 30 26 28 32 34 36 36 35 37 38 39 36 37 35 32 29 26 24 21
56 56 52 51 48 43 45 51 42 34 35 31 28 25 26 31 28 17 21 24 23 31 36 28 25 29 24 25 26 27 24 25 30 34 36 35 34 35 35 36 36 38 34 29 25 21 21 18 18
62 56 53 52 50 48 44 55 44 31 32 30 28 25 30 28 18 18 21 21 27 31 33 26 28 26 24 24 24 23 23 27 30 32 32 33 33 31 30 32 32 27 26 22 20 19 17 16 15
57 59 58 56 53 51 51 54 32 31 31 26 22 29 28 19 21 21 24 28 30 31 25 23 28 23 24 24 21 21 24 27 28 28 28 30 28 26 30 26 25 25 23 19 16 14 13 13 12
61 62 61 60 56 61 49 48 23 28 23 19 24 24 21 19 21 25 28 27 29 23 24 26 25 21 23 20 20 22 24 25 25 26 28 30 26 27 21 21 19 17 16 11 9 6 4 6 7
63 62 62 62 65 54 46 48 23 24 16 22 25 21 19 17 19 25 24 26 20 18 22 19 19 21 19 20 20 22 23 22 24 25 29 26 24 19 16 13 9 12 11 7 3 3 6 5 4
63 62 62 64 62 55 54 50 34 29 21 23 26 18 20 20 23 21 16 17 15 17 22 17 19 18 17 20 19 21 21 22 23 27 23 20 17 15 13 9 8 10 10 8 6 5 5 5 2
59 65 61 62 61 61 55 49 40 33 22 28 17 22 20 21 22 15 16 17 19 19 20 18 16 15 18 18 19 20 18 21 23 22 18 15 15 13 10 7 6 7 8 5 6 6 7 4 4
58 57 59 62 61 62 56 50 41 32 29 27 21 20 19 11 10 13 17 18 17 17 19 15 13 17 17 17 17 16 18 19 21 17 14 14 13 12 8 5 6 6 3 3 6 8 6 7 5
58 57 59 58 62 63 57 52 42 29 34 29 27 13 9 8 8 12 12 13 16 17 17 13 15 16 16 15 15 16 16 19 18 12 10 12 12 10 8 6 5 3 2 3 6 5 7 3 4
54 59 62 62 62 60 59 52 45 32 40 40 28 14 16 8 8 14 14 15 15 18 14 14 15 15 14 14 14 15 17 17 13 9 9 13 13 9 6 5 2 1 3 5 5 5 8 4 6
Wind_Direction
207 206 199 194 194 197 199 218 239 255 247 227 227 231 229 237 251 279 301 306 309 314 325 336 334 341 343 343 338 338 336 335 329 325 318 315 313 310 310 310 312 313 310 304 301 296 289 284 279
208 209 197 196 193 196 207 227 241 247 250 251 242 232 242 233 245 270 304 319 320 321 327 332 335 336 338 341 339 335 331 329 325 321 313 308 306 299 299 299 304 309 308 305 299 294 288 279 277
209 205 200 198 194 204 233 260 267 260 251 263 263 252 264 239 238 275 311 323 317 319 323 324 332 336 338 336 338 337 336 331 328 320 311 306 307 307 305 304 308 309 306 303 300 294 286 277 267
214 216 207 201 202 220 234 237 247 244 285 285 278 264 252 253 262 301 312 314 312 325 326 327 332 335 336 334 334 340 342 336 331 318 309 309 310 311 316 316 318 318 313 307 297 288 286 285 274
216 221 219 213 214 215 222 224 223 250 264 298 273 276 256 281 293 307 306 311 309 316 319 328 327 321 325 330 328 334 339 340 332 323 308 312 314 316 321 324 327 329 326 323 313 299 288 285 277
222 224 224 222 218 217 231 233 242 251 259 261 263 266 262 280 287 291 297 303 298 307 320 327 322 319 327 331 329 334 337 339 333 324 311 315 322 323 325 328 331 330 328 322 314 307 293 284 275
225 231 231 228 222 213 221 245 236 252 270 267 265 271 266 268 285 288 292 293 304 308 313 318 325 322 326 323 326 331 330 331 329 319 313 315 323 323 324 325 331 330 330 323 317 314 305 292 280
230 237 236 232 219 205 215 225 240 235 248 249 252 257 262 273 272 281 286 297 303 302 312 319 325 324 324 325 321 328 324 323 324 315 309 310 317 316 322 328 333 329 327 320 318 312 303 298 289
231 233 230 232 227 219 230 232 236 245 241 257 244 250 258 272 276 279 285 296 300 307 315 318 319 317 318 319 320 326 320 314 315 306 302 304 311 315 320 317 327 323 322 324 321 312 305 298 291
236 239 237 234 235 233 238 249 245 236 237 240 251 253 260 268 269 275 284 296 299 304 303 313 313 314 318 320 319 319 313 304 302 295 293 299 305 314 316 316 320 320 318 321 319 313 307 301 297
234 241 241 238 243 241 235 245 263 248 241 245 248 254 264 258 256 268 278 287 286 293 300 302 307 311 309 313 312 316 309 300 291 288 287 294 301 310 313 310 317 318 316 319 316 313 311 304 298
244 244 245 242 244 250 258 255 255 269 261 255 267 268 259 259 263 270 282 288 288 295 296 297 299 302 305 313 312 313 302 298 292 286 287 294 299 305 310 309 312 313 315 316 314 312 312 308 304
252 249 254 253 251 250 261 262 260 257 256 258 265 267 270 272 273 274 278 283 291 290 290 289 297 295 301 304 303 306 294 296 292 285 286 292 298 303 302 303 306 310 311 313 311 309 308 304 300
247 255 256 251 253 256 257 256 261 255 259 255 263 275 276 272 268 270 278 283 280 281 280 283 290 291 298 296 297 299 288 289 291 286 287 293 302 301 298 299 303 305 308 310 308 308 305 300 297
250 250 249 250 256 261 257 254 259 271 268 268 268 274 274 269 263 267 274 271 274 278 283 286 290 287 292 292 293 291 282 287 289 287 298 305 302 297 295 294 297 301 304 306 306 305 301 296 295
245 249 254 256 260 258 255 251 257 265 273 273 266 263 267 266 263 265 265 266 277 281 287 300 295 292 285 283 292 281 280 286 290 299 307 305 303 294 291 290 293 299 302 305 305 305 303 299 292
242 250 254 256 253 255 258 257 257 264 272 269 260 260 260 260 266 266 273 271 271 284 297 298 289 285 278 278 284 275 278 283 289 300 308 310 302 295 289 290 297 301 304 303 303 302 299 298 293
250 254 257 259 256 257 262 258 264 266 264 259 258 257 260 266 267 270 271 266 276 286 292 287 282 280 276 280 278 272 278 287 291 299 306 311 300 295 297 297 300 303 301 301 302 299 298 296 287
248 247 250 252 251 250 254 254 255 257 251 248 254 258 263 267 265 271 280 290 292 293 287 280 277 274 274 275 276 275 283 291 296 303 309 307 303 302 299 302 302 300 302 300 295 298 298 293 280
241 244 245 250 253 254 255 255 246 242 248 253 257 255 261 263 266 274 285 278 278 285 282 279 273 265 271 267 269 277 289 295 305 309 309 304 298 297 301 302 302 300 298 300 298 300 294 287 280
240 242 245 248 248 248 250 253 247 241 250 258 256 259 259 261 270 278 278 277 285 284 287 295 275 267 267 264 270 281 289 300 305 305 302 300 299 302 305 302 302 305 304 300 299 294 289 281 273
238 241 242 243 246 246 248 255 248 240 247 251 251 250 255 266 285 278 275 283 281 286 286 290 273 270 260 266 276 281 295 301 302 301 300 302 302 301 300 305 309 314 309 306 301 296 284 277 268
237 238 239 241 241 243 244 252 243 243 242 240 250 255 262 273 275 276 278 277 287 292 285 265 270 261 259 273 282 291 299 301 300 300 304 306 300 303 311 311 318 320 316 302 293 286 276 275 268
234 236 237 239 240 240 239 252 238 238 240 244 244 252 264 266 274 283 284 289 286 283 273 257 258 255 265 280 285 298 300 298 300 303 306 308 310 314 319 324 331 337 327 307 298 296 302 281 252
231 233 235 236 237 240 238 245 229 229 219 231 244 256 258 273 288 296 287 280 278 267 259 254 250 255 274 279 293 299 299 301 304 306 310 312 314 322 330 326 341 348 358 13 10 317 325 325 288
228 229 233 235 238 237 239 240 230 234 227 251 249 253 262 275 284 293 271 263 250 247 252 248 249 267 273 287 298 296 302 303 304 310 313 316 322 330 330 320 332 334 353 5 9 6 18 4 360
222 225 230 233 234 236 233 234 234 235 231 240 259 258 267 276 285 261 241 243 233 234 241 239 263 266 278 292 294 300 303 303 309 310 314 320 333 332 321 324 338 342 347 4 18 0 341 334 334
220 222 225 229 230 234 231 232 228 227 231 231 224 251 267 272 257 243 243 236 232 235 233 253 261 271 285 292 297 296 299 304 309 313 325 327 335 328 310 312 330 323 324 17 4 359 355 321 323
221 216 222 224 228 229 230 228 226 215 230 228 234 226 233 292 265 253 256 257 243 234 241 258 262 276 286 295 294 296 301 308 308 317 321 344 341 330 294 300 315 338 347 333 349 354 10 325 302
220 215 218 220 224 227 228 222 221 217 219 230 230 212 215 282 226 254 258 258 254 245 247 252 265 278 288 292 290 298 301 301 302 300 312 345 340 324 283 286 76 345 308 332 341 339 326 296 297